IZ8GMP-13 Weather Reports


Display with metric or nautical units.
time (UTC)temp
F
wind
direction
speed
MPH
gust
MPH
rain 1hr
in
rain 24hr
in
rain mn
in
humidity
%
barometer
mb
20260906071654 83 0.0 0.0 0.00 0.00 0.00 65 1019.3
20260906065651 83 0.0 0.0 0.00 0.00 0.00 67 1019.1
20260906063647 83 0.0 0.0 0.00 0.00 0.00 67 1019.0
20260906061644 82 0.0 0.0 0.00 0.00 0.00 67 1018.9
20260906055641 82 0.0 0.0 0.00 0.00 0.00 67 1018.9
20260906053637 81 0.0 0.0 0.00 0.00 0.00 68 1018.8
20260906051634 81 0.0 0.0 0.00 0.00 0.00 71 1018.6
20260906045630 80 0.0 0.0 0.00 0.00 0.00 73 1018.5
20260906043627 80 0.0 0.0 0.00 0.00 0.00 72 1018.5
20260906041623 80 0.0 0.0 0.00 0.00 0.00 72 1018.4
20260906035620 80 0.0 0.0 0.00 0.00 0.00 71 1018.2
20260906033616 80 0.0 0.0 0.00 0.00 0.00 71 1018.2
20260906031613 80 0.0 0.0 0.00 0.00 0.00 72 1018.0
20260906025609 80 0.0 0.0 0.00 0.00 0.00 72 1018.1
20260906023606 80 0.0 0.0 0.00 0.00 0.00 71 1018.2
20260906021602 80 0.0 0.0 0.00 0.00 0.00 71 1018.3
20260906015559 80 0.0 0.0 0.00 0.00 0.00 70 1018.2
20260906013555 80 0.0 0.0 0.00 0.00 0.00 70 1018.2
20260906011552 81 0.0 0.0 0.00 0.00 0.00 68 1018.3
20260906005549 81 0.0 0.0 0.00 0.00 0.00 68 1018.2
20260906003545 81 0.0 0.0 0.00 0.00 0.00 68 1018.1
20260906001542 81 0.0 0.0 0.00 0.00 0.00 68 1018.3
20260905235538 82 0.0 0.0 0.00 0.00 0.00 67 1018.4
20260905233535 82 0.0 0.0 0.00 0.00 0.00 66 1018.5
20260905231531 82 0.0 0.0 0.00 0.00 0.00 66 1018.6
20260905225528 82 0.0 0.0 0.00 0.00 0.00 66 1018.7
20260905223525 82 0.0 0.0 0.00 0.00 0.00 65 1018.7
20260905215517 82 0.0 0.0 0.00 0.00 0.00 63 1018.7
20260905213514 82 0.0 0.0 0.00 0.00 0.00 63 1018.8
20260905211510 82 0.0 0.0 0.00 0.00 0.00 63 1018.7
20260905205507 82 0.0 0.0 0.00 0.00 0.00 62 1018.9
20260905203503 82 0.0 0.0 0.00 0.00 0.00 62 1018.9
20260905201500 82 0.0 0.0 0.00 0.00 0.00 62 1018.9
20260905195456 83 0.0 0.0 0.00 0.00 0.00 62 1018.8
20260905193453 83 0.0 0.0 0.00 0.00 0.00 61 1018.8
20260905191449 83 0.0 0.0 0.00 0.00 0.00 57 1018.7
20260905185446 82 0.0 0.0 0.00 0.00 0.00 59 1018.7
20260905183443 82 0.0 0.0 0.00 0.00 0.00 64 1018.4
20260905181439 82 0.0 0.0 0.00 0.00 0.00 66 1018.3
20260905175436 82 0.0 0.0 0.00 0.00 0.00 67 1018.1
20260905173432 83 0.0 0.0 0.00 0.00 0.00 67 1018.2
20260905171429 83 0.0 0.0 0.00 0.00 0.00 65 1017.9
20260905165425 84 0.0 0.0 0.00 0.00 0.00 64 1017.7
20260905163422 84 0.0 0.0 0.00 0.00 0.00 62 1017.8
20260905161418 84 0.0 0.0 0.00 0.00 0.00 58 1017.9
20260905155415 83 0.0 0.0 0.00 0.00 0.00 64 1017.7
20260905153411 84 0.0 0.0 0.00 0.00 0.00 65 1017.8
20260905151408 84 0.0 0.0 0.00 0.00 0.00 58 1017.8
20260905145404 86 0.0 0.0 0.00 0.00 0.00 49 1017.6
20260905143401 89 0.0 0.0 0.00 0.00 0.00 42 1017.8
20260905141357 89 0.0 0.0 0.00 0.00 0.00 44 1017.8
20260905135354 89 0.0 0.0 0.00 0.00 0.00 44 1018.0
20260905133350 90 0.0 0.0 0.00 0.00 0.00 42 1018.0
20260905131347 90 0.0 0.0 0.00 0.00 0.00 42 1018.1
20260905125344 90 0.0 0.0 0.00 0.00 0.00 40 1018.3
20260905123340 90 0.0 0.0 0.00 0.00 0.00 42 1018.4
20260905121337 89 0.0 0.0 0.00 0.00 0.00 41 1018.5
20260905115333 89 0.0 0.0 0.00 0.00 0.00 42 1018.6
20260905113330 89 0.0 0.0 0.00 0.00 0.00 41 1018.8
20260905111326 89 0.0 0.0 0.00 0.00 0.00 43 1018.8
20260905105323 88 0.0 0.0 0.00 0.00 0.00 44 1018.8
20260905101316 89 0.0 0.0 0.00 0.00 0.00 38 1018.8
20260905095312 88 0.0 0.0 0.00 0.00 0.00 41 1018.8
20260905093309 88 0.0 0.0 0.00 0.00 0.00 41 1018.9
20260905091305 86 0.0 0.0 0.00 0.00 0.00 50 1018.7
20260905085305 84 0.0 0.0 0.00 0.00 0.00 59 1019.0
20260905083258 83 0.0 0.0 0.00 0.00 0.00 65 1018.9
20260905081255 83 0.0 0.0 0.00 0.00 0.00 69 1018.8
20260905075251 82 0.0 0.0 0.00 0.00 0.00 70 1018.7
20260905073248 82 0.0 0.0 0.00 0.00 0.00 69 1018.7